Tracking 30696 objects as of 15-Jun-2025
HD Live streaming from Space Station
objects crossing your sky now

COSMOS 1275 DEB

Track COSMOS 1275 DEB now!
10-day predictions


NORAD ID: 17638
Int'l Code: 1981-053LL
Perigee: 918.1 km
Apogee: 1,076.4 km
Inclination: 83.0 °
Period: 104.9 minutes
Semi major axis: 7368 km
RCS: 0.0172 m2 (small)
Launch date: June 4, 1981
Source: Commonwealth of Independent States (former USSR) (CIS)
Launch site: PLESETSK MISSILE AND SPACE COMPLEX (PKMTR)

Note: This is SATELLITE DEBRIS
Your satellite tracking list
Your tracking list is empty




NASA's NSSDC Master Catalog

Two Line Element Set (TLE):
1 17638U 81053LH  25166.07410619  .00001197  00000-0  12362-2 0  9994
2 17638  82.9913 197.9024 0107435 170.5033 219.3737 13.72630707994875
Source of the keplerian elements: AFSPC